| time (UTC) | temp F | wind direction | speed MPH | gust MPH | rain 1hr in | rain 24hr in | rain mn in | humidity % | barometer mb |
| 20260906002607 | 76 | 210 | 0.0 | 0.0 | 0.00 | 0.00 | 0.00 | 99 | 976.3 |
| 20260906002101 | 75 | 210 | 0.0 | 0.0 | 0.00 | 0.00 | 0.00 | 99 | 976.2 |
| 20260906001556 | 74 | 211 | 0.0 | 0.0 | 0.00 | 0.00 | 0.00 | 99 | 976.3 |
| 20260906001051 | 74 | 210 | 0.0 | 0.0 | 0.00 | 0.00 | 0.00 | 99 | 976.2 |
| 20260906000547 | 74 | 208 | 0.0 | 0.0 | 0.00 | 0.00 | 0.00 | 99 | 975.9 |
| 20260906000042 | 74 | 209 | 0.0 | 0.0 | 0.00 | 0.00 | 0.00 | 99 | 976.2 |
| 20260905235541 | 74 | 209 | 0.0 | 0.0 | 0.00 | 0.00 | 0.00 | 99 | 975.9 |
| 20260905235037 | 73 | 209 | 0.0 | 0.0 | 0.00 | 0.00 | 0.00 | 99 | 976.1 |
| 20260905234532 | 73 | 209 | 0.0 | 0.0 | 0.00 | 0.00 | 0.00 | 99 | 975.7 |
| 20260905234027 | 73 | 209 | 0.0 | 0.0 | 0.00 | 0.00 | 0.00 | 99 | 975.9 |
| 20260905233522 | 73 | 209 | 0.0 | 0.0 | 0.00 | 0.00 | 0.00 | 99 | 975.6 |
| 20260905233021 | 73 | 209 | 0.0 | 0.0 | 0.00 | 0.00 | 0.00 | 99 | 975.7 |
| 20260905232517 | 73 | 209 | 0.0 | 0.0 | 0.00 | 0.00 | 0.00 | 99 | 975.5 |
| 20260905232013 | 73 | 209 | 0.0 | 0.0 | 0.00 | 0.00 | 0.00 | 99 | 975.7 |
| 20260905231508 | 73 | 209 | 0.0 | 0.0 | 0.00 | 0.00 | 0.00 | 99 | 975.7 |
| 20260905231004 | 73 | 209 | 0.0 | 0.0 | 0.00 | 0.00 | 0.00 | 99 | 975.6 |
| 20260905230503 | 73 | 209 | 0.0 | 0.0 | 0.00 | 0.00 | 0.00 | 99 | 975.6 |
| 20260905230001 | 73 | 211 | 0.0 | 0.0 | 0.00 | 0.00 | 0.00 | 99 | 975.7 |
| 20260905225456 | 73 | 216 | 0.0 | 0.0 | 0.00 | 0.00 | 0.00 | 99 | 975.5 |
| 20260905224951 | 73 | 216 | 0.0 | 0.0 | 0.00 | 0.00 | 0.00 | 99 | 975.7 |
| 20260905224446 | 73 | 216 | 0.0 | 0.0 | 0.00 | 0.00 | 0.00 | 99 | 975.6 |
| 20260905223945 | 73 | 217 | 0.0 | 0.0 | 0.00 | 0.00 | 0.00 | 99 | 975.3 |
| 20260905223443 | 73 | 217 | 0.0 | 0.0 | 0.00 | 0.00 | 0.00 | 99 | 975.3 |
| 20260905222943 | 73 | 217 | 0.0 | 0.0 | 0.00 | 0.00 | 0.00 | 99 | 975.5 |
| 20260905222438 | 73 | 217 | 0.0 | 0.0 | 0.00 | 0.00 | 0.00 | 99 | 975.6 |
| 20260905221934 | 73 | 217 | 0.0 | 0.0 | 0.00 | 0.00 | 0.00 | 99 | 975.4 |
| 20260905221430 | 73 | 217 | 0.0 | 0.0 | 0.00 | 0.00 | 0.00 | 99 | 975.4 |
| 20260905220926 | 73 | 217 | 0.0 | 0.0 | 0.00 | 0.00 | 0.00 | 99 | 975.3 |
| 20260905220422 | 73 | 217 | 0.0 | 0.0 | 0.00 | 0.00 | 0.00 | 99 | 975.3 |
| 20260905215921 | 73 | 217 | 0.0 | 0.0 | 0.00 | 0.00 | 0.00 | 99 | 975.3 |
| 20260905215416 | 73 | 217 | 0.0 | 0.0 | 0.00 | 0.00 | 0.00 | 99 | 975.2 |
| 20260905214913 | 73 | 217 | 0.0 | 0.0 | 0.00 | 0.00 | 0.00 | 99 | 975.1 |
| 20260905214409 | 73 | 217 | 0.0 | 0.0 | 0.00 | 0.00 | 0.00 | 99 | 975.0 |
| 20260905213908 | 73 | 217 | 0.0 | 0.0 | 0.00 | 0.00 | 0.00 | 99 | 975.2 |
| 20260905213405 | 73 | 217 | 0.0 | 0.0 | 0.00 | 0.00 | 0.00 | 99 | 974.7 |
| 20260905212900 | 73 | 217 | 0.0 | 0.0 | 0.00 | 0.00 | 0.00 | 99 | 974.8 |
| 20260905212400 | 73 | 217 | 0.0 | 0.0 | 0.00 | 0.00 | 0.00 | 99 | 974.9 |
| 20260905211853 | 73 | 217 | 0.0 | 0.0 | 0.00 | 0.00 | 0.00 | 99 | 974.9 |
| 20260905211349 | 73 | 217 | 0.0 | 0.0 | 0.00 | 0.00 | 0.00 | 99 | 974.9 |
| 20260905210846 | 73 | 217 | 0.0 | 0.0 | 0.00 | 0.00 | 0.00 | 99 | 974.9 |
| 20260905210345 | 73 | 216 | 0.0 | 0.0 | 0.00 | 0.00 | 0.00 | 99 | 974.9 |
| 20260905205844 | 73 | 216 | 0.0 | 0.0 | 0.00 | 0.00 | 0.00 | 99 | 974.9 |
| 20260905205339 | 73 | 216 | 0.0 | 0.0 | 0.00 | 0.00 | 0.00 | 99 | 975.1 |
| 20260905204838 | 73 | 216 | 0.0 | 0.0 | 0.00 | 0.00 | 0.00 | 99 | 974.8 |
| 20260905204335 | 73 | 216 | 0.0 | 0.0 | 0.00 | 0.00 | 0.00 | 99 | 974.8 |
| 20260905203833 | 73 | 216 | 0.0 | 0.0 | 0.00 | 0.00 | 0.00 | 99 | 975.0 |
| 20260905203329 | 73 | 216 | 0.0 | 0.0 | 0.00 | 0.00 | 0.00 | 99 | 974.9 |
| 20260905202825 | 73 | 215 | 0.0 | 0.0 | 0.00 | 0.00 | 0.00 | 99 | 974.9 |
| 20260905202320 | 73 | 215 | 0.0 | 0.0 | 0.00 | 0.00 | 0.00 | 99 | 974.8 |
| 20260905201815 | 73 | 215 | 0.0 | 0.0 | 0.00 | 0.00 | 0.00 | 99 | 975.0 |
| 20260905201310 | 73 | 215 | 0.0 | 0.0 | 0.00 | 0.00 | 0.00 | 99 | 975.0 |
| 20260905200804 | 73 | 215 | 0.0 | 0.0 | 0.00 | 0.00 | 0.00 | 99 | 974.9 |
| 20260905200300 | 73 | 215 | 0.0 | 0.0 | 0.00 | 0.00 | 0.00 | 99 | 975.3 |
| 20260905195753 | 73 | 215 | 0.0 | 0.0 | 0.00 | 0.00 | 0.00 | 99 | 975.3 |
| 20260905195248 | 73 | 215 | 0.0 | 0.0 | 0.00 | 0.00 | 0.00 | 99 | 975.0 |
| 20260905194744 | 73 | 215 | 0.0 | 0.0 | 0.00 | 0.00 | 0.00 | 99 | 975.0 |
| 20260905194243 | 73 | 215 | 0.0 | 0.0 | 0.00 | 0.00 | 0.00 | 99 | 975.2 |
| 20260905193742 | 73 | 215 | 0.0 | 0.0 | 0.00 | 0.00 | 0.00 | 99 | 975.3 |
| 20260905193238 | 73 | 215 | 0.0 | 0.0 | 0.00 | 0.00 | 0.00 | 99 | 975.2 |
| 20260905192733 | 73 | 215 | 0.0 | 0.0 | 0.00 | 0.00 | 0.00 | 99 | 975.4 |
| 20260905192229 | 74 | 215 | 0.0 | 0.0 | 0.00 | 0.00 | 0.00 | 99 | 975.5 |
| 20260905191729 | 74 | 215 | 0.0 | 0.0 | 0.00 | 0.00 | 0.00 | 99 | 975.5 |
| 20260905191227 | 74 | 215 | 0.0 | 0.0 | 0.00 | 0.00 | 0.00 | 99 | 975.4 |
| 20260905190726 | 74 | 215 | 0.0 | 0.0 | 0.00 | 0.00 | 0.00 | 99 | 975.6 |
| 20260905190225 | 74 | 215 | 0.0 | 0.0 | 0.00 | 0.00 | 0.00 | 99 | 975.6 |
| 20260905185724 | 74 | 212 | 0.0 | 0.0 | 0.00 | 0.00 | 0.00 | 99 | 975.5 |
| 20260905185219 | 74 | 211 | 0.0 | 0.0 | 0.00 | 0.00 | 0.00 | 99 | 975.6 |
| 20260905184718 | 74 | 215 | 0.0 | 0.0 | 0.00 | 0.00 | 0.00 | 99 | 975.6 |
| 20260905184218 | 74 | 215 | 0.0 | 0.0 | 0.00 | 0.00 | 0.00 | 99 | 975.6 |
| 20260905183712 | 75 | 215 | 0.0 | 0.0 | 0.00 | 0.00 | 0.00 | 99 | 975.6 |
| 20260905183207 | 75 | 215 | 0.0 | 0.0 | 0.00 | 0.00 | 0.00 | 99 | 975.6 |
| 20260905182706 | 75 | 215 | 0.0 | 0.0 | 0.00 | 0.00 | 0.00 | 99 | 975.6 |
| 20260905182201 | 75 | 215 | 0.0 | 0.0 | 0.00 | 0.00 | 0.00 | 99 | 975.6 |
| 20260905181656 | 75 | 215 | 0.0 | 0.0 | 0.00 | 0.00 | 0.00 | 99 | 975.5 |
| 20260905181155 | 75 | 215 | 0.0 | 0.0 | 0.00 | 0.00 | 0.00 | 99 | 975.8 |
| 20260905180650 | 75 | 215 | 0.0 | 0.0 | 0.00 | 0.00 | 0.00 | 99 | 975.8 |
| 20260905180146 | 75 | 215 | 0.0 | 0.0 | 0.00 | 0.00 | 0.00 | 99 | 975.6 |
| 20260905175644 | 75 | 215 | 0.0 | 0.0 | 0.00 | 0.00 | 0.00 | 99 | 975.6 |
| 20260905175140 | 75 | 215 | 0.0 | 0.0 | 0.00 | 0.00 | 0.00 | 99 | 975.7 |
| 20260905174635 | 75 | 215 | 0.0 | 0.0 | 0.00 | 0.00 | 0.00 | 99 | 975.8 |
| 20260905174131 | 75 | 215 | 0.0 | 0.0 | 0.00 | 0.00 | 0.00 | 99 | 975.8 |
| 20260905173626 | 75 | 216 | 0.0 | 0.0 | 0.00 | 0.00 | 0.00 | 99 | 975.8 |
| 20260905173122 | 76 | 217 | 0.0 | 0.0 | 0.00 | 0.00 | 0.00 | 99 | 976.0 |
| 20260905172621 | 76 | 217 | 0.0 | 0.0 | 0.00 | 0.00 | 0.00 | 99 | 975.8 |
| 20260905172116 | 76 | 216 | 0.0 | 0.0 | 0.00 | 0.00 | 0.00 | 99 | 975.9 |
| 20260905171612 | 76 | 216 | 0.0 | 0.0 | 0.00 | 0.00 | 0.00 | 99 | 975.9 |
| 20260905171108 | 76 | 216 | 0.0 | 0.0 | 0.00 | 0.00 | 0.00 | 99 | 975.9 |
| 20260905170604 | 76 | 216 | 0.0 | 0.0 | 0.00 | 0.00 | 0.00 | 99 | 976.0 |
| 20260905170059 | 76 | 216 | 0.0 | 0.0 | 0.00 | 0.04 | 0.04 | 99 | 976.1 |
| 20260905165554 | 76 | 216 | 0.0 | 0.0 | 0.00 | 0.04 | 0.04 | 99 | 975.9 |
| 20260905165049 | 76 | 216 | 0.0 | 0.0 | 0.00 | 0.04 | 0.04 | 99 | 976.1 |
| 20260905164544 | 76 | 216 | 0.0 | 0.0 | 0.00 | 0.04 | 0.04 | 99 | 976.0 |
| 20260905164038 | 76 | 216 | 0.0 | 0.0 | 0.00 | 0.04 | 0.04 | 99 | 976.2 |
| 20260905163534 | 76 | 216 | 0.0 | 0.0 | 0.00 | 0.04 | 0.04 | 99 | 976.1 |
| 20260905163030 | 76 | 216 | 0.0 | 0.0 | 0.00 | 0.04 | 0.04 | 99 | 976.2 |
| 20260905162526 | 76 | 216 | 0.0 | 0.0 | 0.00 | 0.04 | 0.04 | 99 | 976.1 |
| 20260905162015 | 76 | 216 | 0.0 | 0.0 | 0.00 | 0.04 | 0.04 | 99 | 976.3 |
| 20260905161515 | 76 | 216 | 0.0 | 0.0 | 0.00 | 0.04 | 0.04 | 99 | 976.2 |
| 20260905161012 | 76 | 216 | 0.0 | 0.0 | 0.00 | 0.04 | 0.04 | 99 | 976.1 |
| 20260905160506 | 76 | 216 | 0.0 | 0.0 | 0.00 | 0.04 | 0.04 | 99 | 976.1 |
| 20260905160005 | 76 | 216 | 0.0 | 0.0 | 0.00 | 0.04 | 0.04 | 99 | 976.1 |
| 20260905155500 | 76 | 216 | 0.0 | 0.0 | 0.00 | 0.04 | 0.04 | 99 | 976.1 |
| 20260905154958 | 77 | 216 | 0.0 | 0.0 | 0.00 | 0.04 | 0.04 | 99 | 976.3 |
| 20260905154454 | 77 | 217 | 0.0 | 0.0 | 0.00 | 0.04 | 0.04 | 99 | 976.1 |
| 20260905153949 | 77 | 216 | 0.0 | 0.0 | 0.00 | 0.04 | 0.04 | 99 | 976.1 |
| 20260905153446 | 77 | 216 | 0.0 | 0.0 | 0.00 | 0.04 | 0.04 | 99 | 976.1 |
| 20260905152945 | 77 | 216 | 0.0 | 0.0 | 0.00 | 0.04 | 0.04 | 99 | 976.3 |
| 20260905152445 | 77 | 217 | 0.0 | 0.0 | 0.00 | 0.04 | 0.04 | 99 | 976.3 |
| 20260905151940 | 77 | 217 | 0.0 | 0.0 | 0.00 | 0.04 | 0.04 | 99 | 976.2 |
| 20260905151436 | 77 | 217 | 0.0 | 0.0 | 0.00 | 0.04 | 0.04 | 99 | 976.4 |
| 20260905150931 | 77 | 217 | 0.0 | 0.0 | 0.00 | 0.04 | 0.04 | 99 | 976.3 |
| 20260905150431 | 77 | 217 | 0.0 | 0.0 | 0.00 | 0.04 | 0.04 | 99 | 976.1 |
| 20260905145927 | 77 | 217 | 0.0 | 0.0 | 0.00 | 0.04 | 0.04 | 99 | 976.0 |
| 20260905145421 | 77 | 217 | 0.0 | 0.0 | 0.00 | 0.04 | 0.04 | 99 | 976.1 |
| 20260905144921 | 77 | 217 | 0.0 | 0.0 | 0.00 | 0.04 | 0.04 | 99 | 976.1 |
| 20260905144417 | 77 | 217 | 0.0 | 0.0 | 0.00 | 0.04 | 0.04 | 99 | 976.1 |
| 20260905143915 | 78 | 209 | 0.0 | 0.0 | 0.00 | 0.04 | 0.04 | 99 | 975.9 |
| 20260905143409 | 78 | 209 | 0.0 | 0.0 | 0.00 | 0.04 | 0.04 | 99 | 975.8 |
| 20260905142903 | 78 | 209 | 0.0 | 0.0 | 0.00 | 0.04 | 0.04 | 99 | 975.9 |
| 20260905142401 | 78 | 209 | 0.0 | 0.0 | 0.00 | 0.04 | 0.04 | 99 | 975.9 |
| 20260905141858 | 78 | 209 | 0.0 | 0.0 | 0.00 | 0.04 | 0.04 | 99 | 975.9 |
| 20260905141347 | 78 | 216 | 0.0 | 0.0 | 0.00 | 0.04 | 0.04 | 99 | 975.7 |
| 20260905140843 | 78 | 217 | 0.0 | 0.0 | 0.00 | 0.04 | 0.04 | 99 | 975.8 |
| 20260905140343 | 78 | 216 | 0.0 | 0.0 | 0.00 | 0.04 | 0.04 | 99 | 975.5 |
| 20260905135841 | 78 | 216 | 0.0 | 0.0 | 0.00 | 0.04 | 0.04 | 99 | 975.7 |
| 20260905135338 | 78 | 216 | 0.0 | 0.0 | 0.00 | 0.04 | 0.04 | 99 | 975.5 |
| 20260905134833 | 78 | 216 | 0.0 | 0.0 | 0.00 | 0.04 | 0.04 | 99 | 975.7 |
| 20260905134326 | 78 | 216 | 0.0 | 0.0 | 0.00 | 0.04 | 0.04 | 99 | 975.6 |
| 20260905133821 | 78 | 216 | 0.0 | 0.0 | 0.00 | 0.04 | 0.04 | 99 | 975.6 |
| 20260905133316 | 78 | 216 | 0.0 | 0.0 | 0.00 | 0.04 | 0.04 | 99 | 975.6 |
| 20260905132815 | 78 | 216 | 0.0 | 0.0 | 0.00 | 0.04 | 0.04 | 99 | 975.6 |
| 20260905132310 | 78 | 216 | 0.0 | 0.0 | 0.00 | 0.04 | 0.04 | 99 | 975.2 |
| 20260905131805 | 78 | 216 | 0.0 | 0.0 | 0.00 | 0.04 | 0.04 | 99 | 975.3 |
| 20260905131301 | 78 | 216 | 0.0 | 0.0 | 0.00 | 0.04 | 0.04 | 99 | 975.2 |
| 20260905130755 | 78 | 216 | 0.0 | 0.0 | 0.00 | 0.04 | 0.04 | 99 | 975.1 |
| 20260905130254 | 78 | 216 | 0.0 | 0.0 | 0.00 | 0.04 | 0.04 | 99 | 974.9 |
| 20260905125750 | 78 | 216 | 0.0 | 0.0 | 0.00 | 0.04 | 0.04 | 99 | 974.8 |
| 20260905125245 | 78 | 216 | 0.0 | 0.0 | 0.00 | 0.04 | 0.04 | 99 | 975.0 |
| 20260905124741 | 78 | 216 | 0.0 | 0.0 | 0.00 | 0.04 | 0.04 | 99 | 974.8 |
| 20260905124237 | 78 | 216 | 0.0 | 0.0 | 0.00 | 0.04 | 0.04 | 99 | 974.9 |
| 20260905123732 | 78 | 216 | 0.0 | 0.0 | 0.00 | 0.04 | 0.04 | 99 | 974.9 |
| 20260905123229 | 78 | 216 | 0.0 | 0.0 | 0.00 | 0.04 | 0.04 | 99 | 974.7 |
| 20260905122728 | 79 | 216 | 0.0 | 0.0 | 0.00 | 0.04 | 0.04 | 99 | 974.9 |
| 20260905122223 | 79 | 216 | 0.0 | 0.0 | 0.00 | 0.04 | 0.04 | 99 | 974.6 |
| 20260905121718 | 79 | 216 | 0.0 | 0.0 | 0.00 | 0.04 | 0.04 | 99 | 974.8 |
| 20260905121214 | 79 | 216 | 0.0 | 0.0 | 0.00 | 0.04 | 0.04 | 99 | 974.5 |
| 20260905120713 | 79 | 216 | 0.0 | 0.0 | 0.00 | 0.04 | 0.04 | 99 | 974.6 |
| 20260905120207 | 79 | 216 | 0.0 | 0.0 | 0.00 | 0.04 | 0.04 | 99 | 974.1 |
| 20260905115702 | 79 | 216 | 0.0 | 0.0 | 0.00 | 0.04 | 0.04 | 99 | 974.3 |
| 20260905115157 | 79 | 216 | 0.0 | 0.0 | 0.00 | 0.04 | 0.04 | 99 | 974.4 |
| 20260905114656 | 79 | 216 | 0.0 | 0.0 | 0.00 | 0.04 | 0.04 | 99 | 974.1 |
| 20260905114154 | 79 | 216 | 0.0 | 0.0 | 0.00 | 0.04 | 0.04 | 97 | 974.0 |
| 20260905113649 | 79 | 216 | 0.0 | 0.0 | 0.00 | 0.04 | 0.04 | 97 | 974.2 |
| 20260905113145 | 79 | 216 | 0.0 | 0.0 | 0.00 | 0.04 | 0.04 | 97 | 974.0 |
| 20260905112639 | 79 | 216 | 0.0 | 0.0 | 0.00 | 0.04 | 0.04 | 97 | 973.8 |
| 20260905112135 | 80 | 216 | 0.0 | 0.0 | 0.00 | 0.04 | 0.04 | 96 | 974.0 |
| 20260905111635 | 80 | 216 | 0.0 | 0.0 | 0.00 | 0.04 | 0.04 | 96 | 973.6 |
| 20260905111134 | 80 | 216 | 0.0 | 0.0 | 0.00 | 0.04 | 0.04 | 95 | 973.8 |
| 20260905110633 | 80 | 216 | 0.0 | 0.0 | 0.00 | 0.04 | 0.04 | 95 | 973.5 |
| 20260905110129 | 80 | 216 | 0.0 | 0.0 | 0.00 | 0.04 | 0.04 | 96 | 973.6 |
| 20260905105624 | 80 | 216 | 0.0 | 0.0 | 0.00 | 0.04 | 0.04 | 96 | 973.4 |
| 20260905105123 | 80 | 216 | 0.0 | 0.0 | 0.00 | 0.04 | 0.04 | 95 | 973.4 |
| 20260905104618 | 80 | 216 | 0.0 | 0.0 | 0.00 | 0.04 | 0.04 | 95 | 973.5 |
| 20260905104113 | 80 | 216 | 0.0 | 0.0 | 0.00 | 0.04 | 0.04 | 96 | 973.1 |
| 20260905103609 | 80 | 216 | 0.0 | 0.0 | 0.00 | 0.04 | 0.04 | 97 | 973.4 |
| 20260905103104 | 79 | 216 | 0.0 | 0.0 | 0.00 | 0.04 | 0.04 | 97 | 973.4 |
| 20260905102600 | 79 | 216 | 0.0 | 0.0 | 0.00 | 0.04 | 0.04 | 96 | 973.7 |
| 20260905102056 | 79 | 216 | 0.0 | 0.0 | 0.00 | 0.04 | 0.04 | 97 | 973.3 |
| 20260905101554 | 79 | 216 | 0.0 | 0.0 | 0.00 | 0.04 | 0.04 | 96 | 973.4 |
| 20260905101053 | 79 | 216 | 0.0 | 0.0 | 0.00 | 0.04 | 0.04 | 96 | 973.5 |
| 20260905100549 | 79 | 216 | 0.0 | 0.0 | 0.00 | 0.04 | 0.04 | 95 | 973.4 |
| 20260905100049 | 79 | 216 | 0.0 | 0.0 | 0.00 | 0.04 | 0.04 | 98 | 973.5 |
| 20260905095543 | 80 | 216 | 0.0 | 0.0 | 0.00 | 0.04 | 0.04 | 97 | 973.3 |
| 20260905095039 | 80 | 216 | 0.0 | 0.0 | 0.00 | 0.04 | 0.04 | 96 | 973.6 |
| 20260905094534 | 80 | 216 | 0.0 | 0.0 | 0.00 | 0.04 | 0.04 | 96 | 973.5 |
| 20260905094033 | 80 | 216 | 0.0 | 0.0 | 0.00 | 0.04 | 0.04 | 97 | 973.4 |
| 20260905093533 | 80 | 216 | 0.0 | 0.0 | 0.00 | 0.04 | 0.04 | 95 | 973.5 |
| 20260905093029 | 80 | 216 | 0.0 | 0.0 | 0.00 | 0.04 | 0.04 | 94 | 973.3 |
| 20260905092529 | 80 | 216 | 1.0 | 1.0 | 0.00 | 0.04 | 0.04 | 91 | 973.5 |
| 20260905092025 | 80 | 215 | 0.0 | 0.0 | 0.00 | 0.04 | 0.04 | 90 | 973.7 |
| 20260905091524 | 81 | 216 | 1.0 | 1.0 | 0.00 | 0.04 | 0.04 | 90 | 973.6 |
| 20260905091019 | 83 | 213 | 0.0 | 0.0 | 0.00 | 0.04 | 0.04 | 89 | 973.7 |
| 20260905090519 | 84 | 210 | 0.0 | 0.0 | 0.00 | 0.04 | 0.04 | 86 | 973.6 |
| 20260905090014 | 85 | 210 | 0.0 | 0.0 | 0.00 | 0.04 | 0.04 | 85 | 973.6 |
| 20260905085513 | 85 | 210 | 0.0 | 0.0 | 0.00 | 0.04 | 0.04 | 86 | 973.4 |
| 20260905085009 | 86 | 210 | 0.0 | 0.0 | 0.00 | 0.04 | 0.04 | 86 | 973.4 |
| 20260905084509 | 86 | 182 | 0.0 | 0.0 | 0.00 | 0.04 | 0.04 | 85 | 973.5 |
| 20260905084003 | 86 | 182 | 0.0 | 0.0 | 0.00 | 0.04 | 0.04 | 85 | 973.5 |
| 20260905083458 | 85 | 213 | 0.0 | 0.0 | 0.00 | 0.04 | 0.04 | 88 | 973.6 |
| 20260905082955 | 85 | 206 | 0.0 | 0.0 | 0.00 | 0.04 | 0.04 | 90 | 973.6 |
| 20260905082450 | 84 | 211 | 0.0 | 0.0 | 0.00 | 0.04 | 0.04 | 87 | 973.4 |
| 20260905081945 | 84 | 211 | 0.0 | 0.0 | 0.00 | 0.04 | 0.04 | 90 | 973.6 |
| 20260905081440 | 84 | 209 | 0.0 | 0.0 | 0.00 | 0.04 | 0.04 | 88 | 973.5 |
| 20260905080939 | 85 | 213 | 0.0 | 0.0 | 0.00 | 0.04 | 0.04 | 87 | 973.5 |
| 20260905080434 | 85 | 213 | 0.0 | 0.0 | 0.00 | 0.04 | 0.04 | 87 | 973.7 |
| 20260905075933 | 86 | 209 | 0.0 | 0.0 | 0.00 | 0.04 | 0.04 | 87 | 973.8 |
| 20260905075427 | 86 | 202 | 0.0 | 0.0 | 0.00 | 0.04 | 0.04 | 87 | 973.5 |
| 20260905074926 | 86 | 186 | 0.0 | 0.0 | 0.00 | 0.04 | 0.04 | 87 | 973.6 |
| 20260905074422 | 87 | 173 | 0.0 | 0.0 | 0.00 | 0.04 | 0.04 | 86 | 973.8 |
| 20260905073918 | 87 | 210 | 0.0 | 0.0 | 0.00 | 0.04 | 0.04 | 88 | 973.8 |
| 20260905073413 | 87 | 209 | 0.0 | 0.0 | 0.00 | 0.04 | 0.04 | 87 | 973.9 |
| 20260905072908 | 87 | 202 | 0.0 | 0.0 | 0.00 | 0.04 | 0.04 | 86 | 973.9 |
| 20260905072403 | 87 | 211 | 0.0 | 0.0 | 0.00 | 0.04 | 0.04 | 88 | 973.7 |
| 20260905071858 | 87 | 212 | 0.0 | 0.0 | 0.00 | 0.04 | 0.04 | 88 | 974.0 |
| 20260905071349 | 87 | 212 | 0.0 | 0.0 | 0.00 | 0.04 | 0.04 | 89 | 973.9 |
| 20260905070849 | 87 | 210 | 0.0 | 0.0 | 0.00 | 0.04 | 0.04 | 87 | 974.2 |
| 20260905070345 | 87 | 211 | 0.0 | 0.0 | 0.00 | 0.04 | 0.04 | 85 | 974.0 |
| 20260905065845 | 87 | 207 | 0.0 | 0.0 | 0.00 | 0.04 | 0.04 | 85 | 974.0 |
| 20260905065343 | 87 | 210 | 0.0 | 0.0 | 0.00 | 0.04 | 0.04 | 87 | 974.2 |
| 20260905064838 | 87 | 210 | 0.0 | 0.0 | 0.00 | 0.04 | 0.04 | 85 | 974.4 |
| 20260905064334 | 87 | 210 | 0.0 | 0.0 | 0.00 | 0.04 | 0.04 | 87 | 974.4 |
| 20260905063832 | 86 | 210 | 0.0 | 0.0 | 0.00 | 0.04 | 0.04 | 87 | 974.5 |
| 20260905063328 | 84 | 202 | 0.0 | 0.0 | 0.00 | 0.04 | 0.04 | 89 | 974.6 |
| 20260905062824 | 84 | 200 | 0.0 | 0.0 | 0.00 | 0.04 | 0.04 | 90 | 974.9 |
| 20260905062319 | 84 | 196 | 0.0 | 0.0 | 0.00 | 0.04 | 0.04 | 89 | 975.1 |
| 20260905061814 | 84 | 212 | 0.0 | 0.0 | 0.00 | 0.04 | 0.04 | 91 | 975.1 |
| 20260905061308 | 84 | 162 | 0.0 | 0.0 | 0.00 | 0.04 | 0.04 | 87 | 975.2 |
| 20260905060802 | 84 | 162 | 0.0 | 0.0 | 0.00 | 0.04 | 0.04 | 88 | 975.2 |
| 20260905060259 | 84 | 357 | 0.0 | 0.0 | 0.00 | 0.04 | 0.04 | 89 | 975.1 |
| 20260905055758 | 84 | 13 | 1.0 | 1.0 | 0.00 | 0.04 | 0.04 | 85 | 975.4 |
| 20260905055253 | 84 | 204 | 0.0 | 0.0 | 0.00 | 0.04 | 0.04 | 87 | 975.5 |
| 20260905054748 | 84 | 163 | 0.0 | 0.0 | 0.00 | 0.04 | 0.04 | 89 | 975.6 |
| 20260905054245 | 84 | 225 | 0.0 | 0.0 | 0.00 | 0.04 | 0.04 | 88 | 975.7 |
| 20260905053743 | 84 | 161 | 0.0 | 1.0 | 0.00 | 0.04 | 0.04 | 90 | 975.8 |
| 20260905053239 | 83 | 167 | 0.0 | 0.0 | 0.00 | 0.04 | 0.04 | 91 | 975.8 |
| 20260905052738 | 83 | 162 | 0.0 | 0.0 | 0.00 | 0.04 | 0.04 | 89 | 975.9 |
| 20260905052233 | 83 | 165 | 0.0 | 0.0 | 0.00 | 0.04 | 0.04 | 92 | 976.1 |
| 20260905051733 | 83 | 55 | 1.0 | 1.0 | 0.00 | 0.04 | 0.04 | 86 | 976.2 |
| 20260905051229 | 83 | 128 | 0.0 | 1.0 | 0.00 | 0.04 | 0.04 | 90 | 976.1 |
| 20260905050726 | 82 | 145 | 1.0 | 2.0 | 0.00 | 0.04 | 0.04 | 92 | 976.3 |
| 20260905050222 | 82 | 152 | 1.0 | 1.0 | 0.00 | 0.04 | 0.04 | 92 | 976.4 |
| 20260905045722 | 82 | 171 | 0.0 | 0.0 | 0.00 | 0.04 | 0.04 | 92 | 976.4 |
| 20260905045217 | 82 | 164 | 0.0 | 0.0 | 0.00 | 0.04 | 0.04 | 93 | 976.5 |
| 20260905044712 | 82 | 160 | 0.0 | 0.0 | 0.00 | 0.04 | 0.04 | 91 | 976.7 |
| 20260905044207 | 81 | 151 | 1.0 | 1.0 | 0.00 | 0.04 | 0.04 | 94 | 976.9 |
| 20260905043706 | 80 | 145 | 1.0 | 1.0 | 0.00 | 0.04 | 0.04 | 95 | 976.8 |
| 20260905043201 | 80 | 23 | 1.0 | 1.0 | 0.00 | 0.04 | 0.04 | 94 | 976.6 |
| 20260905042655 | 80 | 143 | 0.0 | 1.0 | 0.00 | 0.04 | 0.04 | 97 | 976.9 |
| 20260905042155 | 80 | 57 | 1.0 | 1.0 | 0.00 | 0.04 | 0.04 | 95 | 977.0 |
| 20260905041650 | 79 | 92 | 0.0 | 0.0 | 0.00 | 0.04 | 0.04 | 96 | 976.9 |
| 20260905041146 | 79 | 107 | 0.0 | 1.0 | 0.00 | 0.04 | 0.04 | 97 | 977.1 |
| 20260905040640 | 78 | 122 | 1.0 | 2.0 | 0.00 | 0.04 | 0.04 | 99 | 977.2 |
| 20260905040134 | 78 | 168 | 0.0 | 0.0 | 0.00 | 0.04 | 0.04 | 99 | 977.3 |
| 20260905035628 | 78 | 174 | 0.0 | 0.0 | 0.00 | 0.04 | 0.04 | 99 | 977.7 |
| 20260905035125 | 78 | 174 | 0.0 | 0.0 | 0.00 | 0.04 | 0.04 | 99 | 977.1 |
| 20260905034621 | 78 | 180 | 0.0 | 0.0 | 0.00 | 0.04 | 0.04 | 99 | 977.3 |
| 20260905034120 | 78 | 194 | 0.0 | 0.0 | 0.00 | 0.04 | 0.04 | 99 | 977.3 |
| 20260905033620 | 78 | 214 | 0.0 | 0.0 | 0.00 | 0.04 | 0.04 | 99 | 977.2 |
| 20260905033116 | 78 | 214 | 0.0 | 0.0 | 0.00 | 0.04 | 0.04 | 99 | 977.3 |
| 20260905032616 | 77 | 212 | 0.0 | 0.0 | 0.00 | 0.04 | 0.04 | 99 | 977.5 |
| 20260905032115 | 77 | 166 | 0.0 | 0.0 | 0.00 | 0.04 | 0.04 | 99 | 977.5 |
| 20260905031612 | 77 | 215 | 0.0 | 0.0 | 0.00 | 0.04 | 0.04 | 99 | 977.5 |
| 20260905031111 | 77 | 215 | 0.0 | 0.0 | 0.00 | 0.04 | 0.04 | 99 | 977.5 |
| 20260905030607 | 77 | 215 | 0.0 | 0.0 | 0.00 | 0.04 | 0.04 | 99 | 977.5 |
| 20260905025557 | 77 | 215 | 0.0 | 0.0 | 0.00 | 0.04 | 0.04 | 99 | 977.5 |
| 20260905025052 | 77 | 215 | 0.0 | 0.0 | 0.00 | 0.04 | 0.04 | 99 | 977.6 |
| 20260905024547 | 77 | 211 | 0.0 | 0.0 | 0.00 | 0.04 | 0.04 | 99 | 977.6 |
| 20260905024038 | 78 | 215 | 0.0 | 0.0 | 0.00 | 0.04 | 0.04 | 99 | 977.5 |
| 20260905023533 | 77 | 216 | 0.0 | 0.0 | 0.00 | 0.04 | 0.04 | 99 | 977.8 |
| 20260905023032 | 77 | 216 | 0.0 | 0.0 | 0.00 | 0.04 | 0.04 | 99 | 977.6 |
| 20260905022527 | 77 | 216 | 0.0 | 0.0 | 0.00 | 0.04 | 0.04 | 99 | 977.6 |
| 20260905022022 | 77 | 210 | 0.0 | 0.0 | 0.00 | 0.04 | 0.04 | 99 | 977.5 |
| 20260905021521 | 76 | 203 | 0.0 | 0.0 | 0.00 | 0.04 | 0.04 | 99 | 977.7 |
| 20260905021017 | 76 | 203 | 0.0 | 0.0 | 0.00 | 0.04 | 0.04 | 99 | 977.6 |
| 20260905020516 | 0 | 0.0 | 0.0 | 0.00 | 0.00 | 0.00 | 977.5 | ||
| 20260905020012 | 74 | 207 | 0.0 | 0.0 | 0.00 | 0.04 | 0.04 | 99 | 977.7 |
| 20260905015510 | 74 | 207 | 0.0 | 0.0 | 0.00 | 0.04 | 0.04 | 99 | 977.7 |
| 20260905015010 | 74 | 207 | 0.0 | 0.0 | 0.00 | 0.04 | 0.04 | 99 | 977.6 |
| 20260905014504 | 74 | 207 | 0.0 | 0.0 | 0.00 | 0.04 | 0.04 | 99 | 977.8 |
| 20260905014000 | 74 | 207 | 0.0 | 0.0 | 0.00 | 0.04 | 0.04 | 99 | 977.7 |
| 20260905013456 | 74 | 207 | 0.0 | 0.0 | 0.00 | 0.04 | 0.04 | 99 | 977.5 |
| 20260905012951 | 74 | 207 | 0.0 | 0.0 | 0.00 | 0.04 | 0.04 | 99 | 977.5 |
| 20260905012446 | 74 | 207 | 0.0 | 0.0 | 0.00 | 0.04 | 0.04 | 99 | 977.5 |
| 20260905011943 | 74 | 207 | 0.0 | 0.0 | 0.00 | 0.04 | 0.04 | 99 | 977.5 |
| 20260905011438 | 74 | 207 | 0.0 | 0.0 | 0.00 | 0.04 | 0.04 | 99 | 977.1 |
| 20260905010934 | 74 | 207 | 0.0 | 0.0 | 0.00 | 0.04 | 0.04 | 99 | 977.3 |
| 20260905010429 | 74 | 207 | 0.0 | 0.0 | 0.00 | 0.04 | 0.04 | 99 | 977.3 |
| 20260905005924 | 74 | 208 | 0.0 | 0.0 | 0.00 | 0.04 | 0.04 | 99 | 977.2 |
| 20260905005421 | 74 | 208 | 0.0 | 0.0 | 0.00 | 0.04 | 0.04 | 99 | 977.2 |
| 20260905004920 | 74 | 208 | 0.0 | 0.0 | 0.00 | 0.04 | 0.04 | 99 | 977.1 |
| 20260905004415 | 74 | 195 | 0.0 | 0.0 | 0.00 | 0.04 | 0.04 | 99 | 977.1 |
| 20260905003910 | 73 | 197 | 0.0 | 0.0 | 0.00 | 0.04 | 0.04 | 99 | 977.1 |
| 20260905003406 | 73 | 197 | 0.0 | 0.0 | 0.00 | 0.04 | 0.04 | 99 | 976.9 |
| 20260905002902 | 73 | 197 | 0.0 | 0.0 | 0.00 | 0.04 | 0.04 | 99 | 977.1 |